SL-16 DEB, 22610

Orbit data source: Space-Track

SL-16 DEB, 22610 is space debris in LEO originally from a launch on Fri, 26 Mar 1993 UTC launched from the Tyuratam Missile And Space Complex (TTMTR). Debris objects in space refer to the collection of defunct objects orbiting the Earth. Examples of debris include non-operational satellites, rocket bodies, and fragments generated from explosions, collisions, or faulty payload assembly.

Loading next visibility...
Identifier
22610, 1993-016U
Orbit
LEO
Country
Flag of CISCIS
Related business
Manufacturer
Unknown
Mission
Spacecraft
Bus & Motor
Unknown
Mass
Unknown
Launch date (UTC)
1993-03-26 (33 years ago)
Launch vehicle
Unknown
Launch site
Tyuratam Missile And Space Complex (TTMTR)
Object type
Payload
Rocket body
Debris
Shape & HBR
Unknown shape, 0.3 m
Radar Cross Section
Medium (>0.1 m² and <1 m²)

Expand to show TLE details & history
Last TLE update: 13 hours ago

TLE from 13 hours ago
0 SL-16 DEB
1 22610U 93016U   26255.09341022  .00000004  00000-0  46478-4 0  9998
2 22610  70.9998 300.4241 0213669 188.4307 171.3182 13.67907071670497
Epoch: 2026-09-12T02:14Z
TLE epoch observation values (Epoch: 2026-09-12T02:14:30.643Z)
Latitude
0.00005°
Longitude
-84.31092°
Altitude
1,165.529 km
Speed
7.194 km/s
True Right ascension
20h 01m 41s
True Declination
0° 00' 00"
Sunlit
Object was in full shadow at epoch
Visualization orbit readout
Latitude
Unknown
Longitude
Unknown
Altitude
Unknown
Speed
Unknown
Apparent Right ascension
Unknown
Apparent Declination
Unknown
Sunlit
N/A
Visualization observer readout
Local Sidereal Time
07:40:25
Azimuth
Unknown
Elevation
Unknown
Doppler factor
Unknown
Orbital elements
Apogee altitude
1,162.821 km
Perigee altitude
847.308 km
Semi-major axis
7,383.201 km
Eccentricity
0.02137
Inclination
70.9998°
RAAN
300.4241°
Arg. of periapsis
188.4307°
True anomaly
171.67827°
Mean anomaly
171.3182°
Eccentric anomaly
171.49917°
Mean motion
3.42118 °/min
Orbital period
105.23 mins
BSTAR
0.000046478
Loading maneuver chart data...
Computing Atmospheric mass density...
Loading historical data...
Loading historical data...
Loading historical data...
Loading historical data...
Loading historical data...
Loading historical data...
Loading historical data...

Documentation

Showing up to 5 results
|